When you browse on this site, cookies collect data to enhance your experience and personalize the content and advertising you see.
Visit our Privacy Policy to learn more. By continuing to use the site, you agree to this use of cookies and data.
  • In Hungary
  • List of Countries
  • For 7 days
  • Water Temperature
  • Weather Map
  • News
  • Weather Widgets
  • user-avatar
    Login

    Hourly Weather Kipungo

    Today, 27 February, Thursday

    Time Temperature Precipitation Wind Pressure Humidity
    00:00 +20°C° 0 mm 1 mps 652 mmHg 87%
    01:00 +20°C° 0 mm 1 mps 652 mmHg 89%
    02:00 +19°C° 0 mm 1 mps 651 mmHg 90%
    03:00 +19°C° 0 mm 1 mps 651 mmHg 90%
    04:00 +19°C° 0 mm 1 mps 651 mmHg 91%
    05:00 +19°C° 0 mm 1 mps 651 mmHg 89%
    06:00 +20°C° 0 mm 1 mps 652 mmHg 87%
    07:00 +20°C° 0 mm 1 mps 652 mmHg 86%
    08:00 +23°C° 0 mm 1 mps 653 mmHg 75%
    09:00 +25°C° 0 mm 1 mps 654 mmHg 64%
    10:00 +28°C° 0 mm 1 mps 654 mmHg 53%
    11:00 +29°C° 0 mm 1 mps 654 mmHg 50%
    12:00 +31°C° 0 mm 2 mps 653 mmHg 46%
    13:00 +32°C° 0 mm 2 mps 653 mmHg 42%
    14:00 +32°C° 0 mm 2 mps 653 mmHg 44%
    15:00 +31°C° 0 mm 2 mps 652 mmHg 45%
    16:00 +31°C° 0 mm 3 mps 652 mmHg 47%
    17:00 +29°C° 0 mm 3 mps 652 mmHg 54%
    18:00 +27°C° 0 mm 3 mps 652 mmHg 61%
    19:00 +25°C° 0 mm 3 mps 652 mmHg 68%
    20:00 +24°C° 0 mm 3 mps 652 mmHg 74%
    21:00 +23°C° 0 mm 2 mps 652 mmHg 79%
    22:00 +21°C° 0 mm 1 mps 653 mmHg 84%
    23:00 +20°C° 0 mm 2 mps 652 mmHg 85%

    Tomorrow, 28 February, Friday

    Time Temperature Precipitation Wind Pressure Humidity
    00:00 +20°C° 0 mm 2 mps 652 mmHg 85%
    01:00 +19°C° 0 mm 2 mps 652 mmHg 86%
    02:00 +19°C° 0 mm 2 mps 652 mmHg 87%
    03:00 +19°C° 0 mm 1 mps 651 mmHg 89%
    04:00 +19°C° 0 mm 1 mps 651 mmHg 90%
    05:00 +20°C° 0 mm 1 mps 651 mmHg 88%
    06:00 +20°C° 0 mm 1 mps 652 mmHg 86%
    07:00 +21°C° 0 mm 1 mps 653 mmHg 83%
    08:00 +23°C° 0 mm 1 mps 653 mmHg 72%
    09:00 +25°C° 0 mm 1 mps 654 mmHg 60%
    10:00 +28°C° 0 mm 2 mps 655 mmHg 49%
    11:00 +29°C° 0 mm 2 mps 654 mmHg 47%
    12:00 +30°C° 0 mm 2 mps 654 mmHg 46%
    13:00 +31°C° 0 mm 3 mps 653 mmHg 45%
    14:00 +31°C° 0 mm 3 mps 653 mmHg 47%
    15:00 +30°C° 0 mm 4 mps 652 mmHg 48%
    16:00 +30°C° 0 mm 4 mps 652 mmHg 50%
    17:00 +28°C° 0 mm 4 mps 652 mmHg 53%
    18:00 +26°C° 0 mm 4 mps 652 mmHg 57%
    19:00 +23°C° 0 mm 4 mps 652 mmHg 60%
    20:00 +21°C° 0 mm 3 mps 652 mmHg 65%
    21:00 +20°C° 0 mm 3 mps 652 mmHg 70%
    22:00 +19°C° 0 mm 2 mps 653 mmHg 75%
    23:00 +18°C° 0 mm 2 mps 652 mmHg 79%

    Day after tomorrow, 29 February, Saturday

    Time Temperature Precipitation Wind Pressure Humidity
    00:00 +17°C° 0 mm 2 mps 652 mmHg 84%
    01:00 +17°C° 0 mm 2 mps 651 mmHg 88%
    02:00 +16°C° 0 mm 1 mps 651 mmHg 89%
    03:00 +16°C° 0 mm 1 mps 651 mmHg 89%
    04:00 +16°C° 0 mm 1 mps 651 mmHg 89%
    05:00 +16°C° 0 mm 1 mps 651 mmHg 85%
    06:00 +16°C° 0 mm 1 mps 652 mmHg 81%
    07:00 +18°C° 0 mm 1 mps 652 mmHg 77%
    08:00 +20°C° 0 mm 2 mps 653 mmHg 63%
    09:00 +24°C° 0 mm 2 mps 654 mmHg 49%
    10:00 +27°C° 0 mm 2 mps 655 mmHg 35%
    11:00 +28°C° 0 mm 3 mps 655 mmHg 31%
    12:00 +29°C° 0 mm 3 mps 655 mmHg 28%
    13:00 +31°C° 0 mm 3 mps 655 mmHg 24%
    14:00 +30°C° 0 mm 3 mps 654 mmHg 29%
    15:00 +29°C° 0 mm 3 mps 653 mmHg 34%
    16:00 +29°C° 0 mm 3 mps 653 mmHg 38%
    17:00 +26°C° 0 mm 3 mps 653 mmHg 45%
    18:00 +24°C° 0 mm 2 mps 652 mmHg 51%
    19:00 +21°C° 0 mm 2 mps 652 mmHg 58%
    20:00 +21°C° 0 mm 2 mps 653 mmHg 58%
    21:00 +20°C° 0 mm 2 mps 653 mmHg 58%
    22:00 +20°C° 0 mm 3 mps 654 mmHg 57%
    23:00 +19°C° 0 mm 3 mps 654 mmHg 62%

    1 March, Sunday

    Time Temperature Precipitation Wind Pressure Humidity
    00:00 +19°C° 0 mm 3 mps 654 mmHg 67%
    01:00 +18°C° 0 mm 3 mps 653 mmHg 72%
    02:00 +17°C° 0 mm 3 mps 653 mmHg 74%
    03:00 +17°C° 0 mm 2 mps 653 mmHg 77%
    04:00 +16°C° 0 mm 2 mps 653 mmHg 79%
    05:00 +16°C° 0 mm 3 mps 653 mmHg 79%
    06:00 +16°C° 0 mm 3 mps 653 mmHg 79%
    07:00 +16°C° 0 mm 3 mps 654 mmHg 80%
    08:00 +19°C° 0 mm 3 mps 654 mmHg 67%
    09:00 +22°C° 0 mm 3 mps 655 mmHg 53%
    10:00 +26°C° 0 mm 3 mps 656 mmHg 40%
    11:00 +27°C° 0 mm 3 mps 656 mmHg 36%
    12:00 +29°C° 0 mm 3 mps 656 mmHg 33%
    13:00 +30°C° 0 mm 4 mps 655 mmHg 29%
    14:00 +30°C° 0 mm 4 mps 655 mmHg 30%
    15:00 +29°C° 0 mm 4 mps 654 mmHg 32%
    16:00 +29°C° 0 mm 4 mps 653 mmHg 33%
    17:00 +26°C° 0 mm 3 mps 653 mmHg 43%
    18:00 +24°C° 0 mm 3 mps 653 mmHg 53%
    19:00 +20°C° 0 mm 2 mps 652 mmHg 62%
    20:00 +19°C° 0 mm 2 mps 652 mmHg 65%
    21:00 +18°C° 0 mm 2 mps 653 mmHg 68%
    22:00 +17°C° 0 mm 2 mps 653 mmHg 70%
    23:00 +17°C° 0 mm 2 mps 653 mmHg 69%

    2 March, Monday

    Time Temperature Precipitation Wind Pressure Humidity
    00:00 +16°C° 0 mm 2 mps 653 mmHg 68%
    01:00 +16°C° 0 mm 2 mps 652 mmHg 67%
    02:00 +16°C° 0 mm 1 mps 652 mmHg 66%
    03:00 +15°C° 0 mm 1 mps 652 mmHg 65%
    04:00 +15°C° 0 mm 1 mps 651 mmHg 64%
    05:00 +15°C° 0 mm 1 mps 652 mmHg 64%
    06:00 +15°C° 0 mm 0 mps 652 mmHg 64%
    07:00 +15°C° 0 mm 0 mps 653 mmHg 63%
    08:00 +19°C° 0 mm 0 mps 654 mmHg 53%
    09:00 +24°C° 0 mm 1 mps 655 mmHg 43%
    10:00 +28°C° 0 mm 1 mps 656 mmHg 32%
    11:00 +29°C° 0 mm 1 mps 655 mmHg 30%
    12:00 +30°C° 0 mm 2 mps 655 mmHg 27%
    13:00 +31°C° 0 mm 3 mps 655 mmHg 25%
    14:00 +31°C° 0 mm 3 mps 654 mmHg 27%
    15:00 +30°C° 0 mm 3 mps 654 mmHg 29%
    16:00 +30°C° 0 mm 3 mps 653 mmHg 31%
    17:00 +27°C° 0 mm 3 mps 653 mmHg 39%
    18:00 +24°C° 0 mm 2 mps 652 mmHg 47%
    19:00 +21°C° 0 mm 2 mps 652 mmHg 55%
    20:00 +20°C° 0 mm 2 mps 652 mmHg 55%
    21:00 +19°C° 0 mm 2 mps 653 mmHg 55%
    22:00 +18°C° 0 mm 2 mps 653 mmHg 55%
    23:00 +17°C° 0 mm 2 mps 653 mmHg 55%

    3 March, Tuesday

    Time Temperature Precipitation Wind Pressure Humidity
    00:00 +17°C° 0 mm 2 mps 652 mmHg 55%
    01:00 +16°C° 0 mm 2 mps 652 mmHg 55%
    02:00 +16°C° 0 mm 1 mps 652 mmHg 55%
    03:00 +15°C° 0 mm 1 mps 652 mmHg 55%
    04:00 +13°C° 0 mm 0 mps 651 mmHg 55%
    05:00 +14°C° 0 mm 0 mps 652 mmHg 56%
    06:00 +15°C° 0 mm 0 mps 653 mmHg 58%
    07:00 +16°C° 0 mm 1 mps 653 mmHg 59%
    08:00 +21°C° 0 mm 1 mps 654 mmHg 50%
    09:00 +25°C° 0 mm 1 mps 655 mmHg 42%
    10:00 +29°C° 0 mm 1 mps 656 mmHg 33%
    11:00 +30°C° 0 mm 1 mps 656 mmHg 30%
    12:00 +31°C° 0 mm 1 mps 656 mmHg 27%
    13:00 +32°C° 0 mm 1 mps 655 mmHg 25%
    14:00 +32°C° 0 mm 2 mps 655 mmHg 26%
    15:00 +31°C° 0 mm 3 mps 654 mmHg 28%
    16:00 +30°C° 0 mm 3 mps 653 mmHg 30%
    17:00 +27°C° 0 mm 3 mps 653 mmHg 38%
    18:00 +24°C° 0 mm 2 mps 653 mmHg 46%
    19:00 +21°C° 0 mm 2 mps 652 mmHg 54%
    20:00 +20°C° 0 mm 2 mps 653 mmHg 54%
    21:00 +19°C° 0 mm 2 mps 653 mmHg 53%
    22:00 +18°C° 0 mm 2 mps 653 mmHg 53%
    23:00 +17°C° 0 mm 2 mps 653 mmHg 54%
    Show more